• MPC Preparation (Info)

  • MPEC 1995-E11 : 1994 TB

    The following Minor Planet Electronic Circular may be linked-to from your own Web pages, but must not otherwise be redistributed electronically.

    A form allowing access to any MPEC is at the bottom of this page.


    Read MPEC 1995-E10 Read MPEC 1995-E12


    M.P.E.C. 1995-E11                                Issued 1995 Mar. 10, 15:47 UT
    
         The Minor Planet Electronic Circulars contain information on unusual
             minor planets and routine data on comets.  They are published
       on behalf of Commission 20 of the International Astronomical Union by the
              Minor Planet Center, Smithsonian Astrophysical Observatory,
                              Cambridge, MA 02138, U.S.A.
    
              MARSDEN@CFA or WILLIAMS@CFA (.HARVARD.EDU, .SPAN or .BITNET)
    
                                        1994 TB
    
                          *** Correction to MPEC 1994-T02 ***
    
    Observations:
         J94T00B* C1994 10 02.2459  23 14 12.85 +02 42 53.6          21.5 R      568
         J94T00B  C1994 10 02.2730  23 14 12.72 +02 42 52.9                      568
         J94T00B  C1994 10 02.3127  23 14 12.48 +02 42 51.4                      568
         J94T00B  C1994 10 02.4510  23 14 11.74 +02 42 46.3                      568
         J94T00B  C1994 10 02.4573  23 14 11.67 +02 42 45.7                      568
         J94T00B  C1994 10 02.4633  23 14 11.65 +02 42 45.8                      568
         J94T00B  C1994 10 03.2377  23 14 07.55 +02 42 17.4                      568
         J94T00B  C1994 10 03.5325  23 14 05.93 +02 42 06.8                      568
         J94T00B  C1994 10 03.5388  23 14 05.92 +02 42 06.7                      568
         J94T00B  C1994 10 13.20428 23 13 16.84 +02 36 28.3          22.5 V      689
         J94T00B  C1994 10 13.21679 23 13 16.77 +02 36 27.6          22.5 V      689
         J94T00B  C1994 10 13.22905 23 13 16.69 +02 36 27.3          22.6 V      689
         J94T00B  C1994 10 13.24121 23 13 16.66 +02 36 26.9          22.5 V      689
         J94T00B  C1994 10 28.16547 23 12 14.18 +02 28 30.3          22.8 V      689
         J94T00B  C1994 10 28.19734 23 12 14.06 +02 28 29.2          22.6 V      689
         J94T00B  C1994 11 01.2576  23 12 00.69 +02 26 33.5          23   R      568
         J94T00B  C1994 11 01.3372  23 12 00.43 +02 26 30.8                      568
         J94T00B  C1994 11 07.9015  23 11 41.91 +02 23 40.1          21.7 R      950
         J94T00B  C1994 11 07.9554  23 11 41.76 +02 23 38.8                      950
         J94T00B  C1994 11 07.9960  23 11 41.66 +02 23 37.9                      950
    
    Observer details:
    568 Mauna Kea.  Observers D. Jewitt, J. Chen.  2.2-m University of Hawaii
        reflector.  The Oct. 2-3 observations correct those published earlier.
    689 U.S. Naval Observatory, Flagstaff.  Observer C. Dahn.  Measurers
        A. Monet, H. Harris.  1.5-m astrometric reflector.
    950 La Palma.  Observers A. Fitzsimmons, D. O'Ceallaigh, I. Williams.
        2.5-m Isaac Newton telescope.
    
    Orbital elements:
    1994 TB
    The following assumed 2:3 Neptune-resonance orbital elements keep
    the object more than 12 AU from Neptune over a 14 000-year period.
    Epoch 1994 Oct. 15.0 TT = JDT 2449640.5                 Marsden
    M  38.59321              (2000.0)            P               Q
    n   0.00396031     Peri.  317.02319     +0.09289824     +0.98540357
    a  39.5654895      Node   317.70748     -0.84635626     +0.00268604
    e   0.3746710      Incl.   12.23908     -0.52445304     +0.17021336
    P 248.87           H     7.5          G   0.15
    From 18 observations 1994 Oct. 2-Nov. 7.
    
    Ephemeris:
    1994 TB                  a,e,i = 39.57, 0.37, 12                 q = 24.741
    Date    TT    R. A. (2000) Decl.     Delta      r     Elong.  Phase     V
    1995 05 23    23 27.55   +04 04.9   31.993   31.619    67.5     1.7    22.7
    1995 06 02    23 28.03   +04 11.0   31.845   31.630    76.9     1.8    22.7
    1995 06 12    23 28.34   +04 16.0   31.691   31.641    86.3     1.8    22.7
    1995 06 22    23 28.46   +04 19.8   31.535   31.652    95.7     1.8    22.7
    1995 07 02    23 28.38   +04 22.5   31.382   31.663   105.1     1.8    22.7
    1995 07 12    23 28.13   +04 23.8   31.236   31.674   114.6     1.7    22.7
    1995 07 22    23 27.70   +04 23.9   31.103   31.684   124.2     1.5    22.7
    1995 08 01    23 27.11   +04 22.7   30.985   31.695   133.7     1.3    22.6
    1995 08 11    23 26.39   +04 20.4   30.888   31.706   143.3     1.1    22.6
    1995 08 21    23 25.55   +04 17.0   30.813   31.717   152.8     0.8    22.6
    1995 08 31    23 24.63   +04 12.6   30.765   31.728   162.1     0.6    22.6
    1995 09 10    23 23.67   +04 07.6   30.746   31.739   170.2     0.3    22.5
    1995 09 20    23 22.70   +04 02.0   30.755   31.749   171.8     0.3    22.5
    1995 09 30    23 21.75   +03 56.1   30.794   31.760   164.5     0.5    22.5
    1995 10 10    23 20.86   +03 50.1   30.862   31.771   155.2     0.8    22.6
    1995 10 20    23 20.07   +03 44.3   30.957   31.782   145.4     1.0    22.6
    1995 10 30    23 19.40   +03 39.0   31.077   31.793   135.5     1.3    22.7
    1995 11 09    23 18.89   +03 34.3   31.219   31.804   125.5     1.5    22.7
    1995 11 19    23 18.56   +03 30.6   31.378   31.815   115.4     1.6    22.7
    1995 11 29    23 18.42   +03 27.8   31.550   31.825   105.3     1.7    22.7
    1995 12 09    23 18.47   +03 26.3   31.730   31.836    95.3     1.8    22.7
    1995 12 19    23 18.73   +03 26.0   31.913   31.847    85.3     1.8    22.8
    1995 12 29    23 19.18   +03 27.0   32.094   31.858    75.3     1.7    22.8
    1996 01 08    23 19.82   +03 29.3   32.267   31.869    65.3     1.6    22.8
    
    Brian G. Marsden                                              M.P.E.C. 1995-E11
    

    Read MPEC 1995-E10 Read MPEC 1995-E12


    MPEC number:

    Enter an MPEC number in one of the following forms:

    • 1997-B01 (the full form)
    • J97B01 (the packed version of the full form)
    • B01 (the abbreviated form)